Content
SEND FEEDBACK

Daily
Averages
Monthly
Summary
United States of America

FEASTERVILLE TREVOSE, PENNSYLVANIA


Home > North America > United States > Pennsylvania
Elevation: 108 feet     Latitude: 40 09N     Longitude: 074 57W

WEATHER
 
SELECT A DAY
Number of Records: 195,174;   Date Range: 1/1/95 - 8/12/14
 
SHARE

PRINT THIS DATA

[ ← Previous Day ]
WEATHER ALMANAC - JANUARY 31, 2013
[ Next Day → ]
[ °C ]   °F
Weather ElementAverageHighLow
Temperature48 °F62.1 °F (1:54 am)28.9 °F (11:54 pm)
Dewpoint35.3 °F59 °F (3:20 am)9 °F (10:54 pm)
Humidity64.3 %94 % (3:20 am)36 % (3:54 pm)
Barometer29.42 in29.88 in (11:54 pm)29.12 in (2:54 am)
Wind Speed21.5 mph31.1 mph (3:23 am)
Wind Gust48.3 mph (3:54 pm)
Weather ElementAverage
Visibility7.8 mi
Wind DirectionWSW (257.7 °)

Weather ElementTotal
Precipitation2.42 in
Heating Degree Days19.5 (Base 65)
Averaged from 31 records on January 31, 2013
WEATHER CONDITIONS BREAKOUT
WIND DIRECTION BREAKOUT
WEATHER BY HOUR - JANUARY 31, 2013
[ °C ]   °F
Local TimeTemperatureDewpointHumidityBarometerVisibilityWind DirectionWind SpeedGust SpeedPrecipitationEventsConditions
12:54 AM61.0 °F57.9 °F90 %29.28 in6.0 miSouth (190°)13.8 mph21.9 mph0.16 inRainLight Rain
1:54 AM62.1 °F57.9 °F86 %29.18 in9.0 miSouth (180°)18.4 mph32.2 mph0.05 inRainLight Rain
2:54 AM62.1 °F57.9 °F86 %29.12 in5.0 miSouth (180°)17.3 mph34.5 mph0.06 inRainRain
3:20 AM60.8 °F59.0 °F94 %29.17 in1.8 miWSW (240°)25.3 mph41.4 mph0.12 inRainHeavy Rain
3:23 AM60.8 °F59.0 °F94 %29.20 in1.2 miWest (260°)31.1 mph41.4 mph0.16 inRainHeavy Rain
3:29 AM60.8 °F59.0 °F94 %29.18 in1.0 miWSW (250°)21.9 mph40.3 mph0.37 inRainHeavy Rain
3:36 AM60.8 °F57.2 °F88 %29.18 in3.0 miWSW (250°)18.4 mph32.2 mph0.41 inRainHeavy Rain
3:47 AM60.8 °F57.2 °F88 %29.19 in7.0 miWSW (250°)13.8 mph25.3 mph0.43 inRainRain
3:54 AM60.1 °F55.9 °F86 %29.18 in5.0 miWSW (240°)21.9 mph32.2 mph0.46 inRainHeavy Rain
4:54 AM57.9 °F55.0 °F90 %29.15 in10.0 miSSW (210°)11.5 mph19.6 mph0.10 inRainLight Rain
5:47 AM55.4 °F51.8 °F88 %29.18 in2.5 miWest (280°)25.3 mph36.8 mph0.00 inRainRain
5:54 AM53.1 °F50.0 °F89 %29.19 in2.0 miWest (260°)16.1 mph36.8 mph0.10 inRainRain
6:01 AM53.6 °F48.2 °F82 %29.20 in9.0 miWest (270°)25.3 mph33.4 mphRainLight Rain
6:11 AM51.8 °F46.4 °F82 %29.22 in10.0 miWest (280°)27.6 mph41.4 mph0.00 inRainLight Rain
6:54 AM48.9 °F32.0 °F52 %29.28 in10.0 miWest (280°)21.9 mph41.4 mph0.00 inMostly Cloudy
7:54 AM46.0 °F30.9 °F56 %29.36 in10.0 miWNW (290°)25.3 mph36.8 mphOvercast
8:54 AM43.0 °F25.0 °F49 %29.44 in10.0 miWest (280°)25.3 mph40.3 mphMostly Cloudy
9:54 AM42.1 °F25.0 °F51 %29.48 in10.0 miWest (280°)19.6 mph33.4 mphMostly Cloudy
10:54 AM43.0 °F24.1 °F47 %29.52 in10.0 miWest (270°)31.1 mph36.8 mphMostly Cloudy
11:54 AM42.1 °F24.1 °F49 %29.53 in10.0 miWest (280°)20.7 mph31.1 mphOvercast
12:54 PM45.0 °F21.9 °F40 %29.53 in10.0 miWest (260°)28.8 mph38.0 mphMostly Cloudy
1:54 PM42.1 °F19.0 °F40 %29.56 in10.0 miWNW (290°)23.0 mph35.7 mphClear
2:54 PM43.0 °F19.9 °F40 %29.60 in10.0 miWest (270°)19.6 mph33.4 mphScattered Clouds
3:54 PM39.9 °F15.1 °F36 %29.65 in10.0 miWest (280°)31.1 mph48.3 mphPartly Cloudy
4:54 PM37.0 °F12.0 °F36 %29.71 in10.0 miWest (270°)29.9 mph42.6 mphPartly Cloudy
5:54 PM35.1 °F14.0 °F42 %29.74 in10.0 miWest (280°)15.0 mph32.2 mphPartly Cloudy
6:54 PM35.1 °F15.1 °F44 %29.78 in10.0 miWSW (250°)18.4 mph27.6 mphMostly Cloudy
7:54 PM34.0 °F14.0 °F44 %29.80 in10.0 miWest (280°)23.0 mph35.7 mph0.00 inMostly Cloudy
8:54 PM32.0 °F12.9 °F45 %29.83 in10.0 miWest (280°)19.6 mph32.2 mphMostly Cloudy
10:54 PM30.0 °F9.0 °F41 %29.86 in10.0 miWest (270°)17.3 mph26.5 mphClear
11:54 PM28.9 °F9.0 °F43 %29.88 in10.0 miWSW (240°)10.4 mphClear
Hourly data recorded from KPNE, located miles away from Feasterville Trevose, Pennsylvania







STORIES FROM OUR PARTNERS